This is the latest recevied weather packets stored in our database for station/object AE0NK. If no packets are shown the sender has not sent any weather packets the latest 1 day(s).
| Time | Temp. | Humidity | Pressure | Rain* | Wind** | Luminosity | Snow |
|---|---|---|---|---|---|---|---|
| 1778014095 | 13.89° C | 39% | 1010 hPa | 0 mm | 0.89 m/s, 222° | 193 W/m² | - |
| 1778013792 | 13.89° C | 41% | 1010.2 hPa | 0 mm | 0.89 m/s, 258° | 211 W/m² | - |
| 1778013492 | 13.89° C | 38% | 1010 hPa | 0 mm | 1.34 m/s, 289° | 241 W/m² | - |
| 1778013210 | 13.89° C | 38% | 1010.1 hPa | 0 mm | 0.89 m/s, 324° | 272 W/m² | - |
| 1778012909 | 14.44° C | 39% | 1010.2 hPa | 0 mm | 0.89 m/s, 259° | 272 W/m² | - |
| 1778012607 | 13.89° C | 40% | 1010.3 hPa | 0 mm | 1.34 m/s, 171° | 473 W/m² | - |
| 1778012305 | 13.89° C | 38% | 1010.3 hPa | 0 mm | 1.34 m/s, 294° | 332 W/m² | - |
| 1778012004 | 13.89° C | 37% | 1010.4 hPa | 0 mm | 1.79 m/s, 195° | 316 W/m² | - |
| 1778011704 | 13.89° C | 38% | 1010.4 hPa | 0 mm | 1.79 m/s, 327° | 489 W/m² | - |
| 1778011402 | 13.33° C | 38% | 1010.4 hPa | 0 mm | 1.79 m/s, 282° | 383 W/m² | - |
| 1778011097 | 13.33° C | 38% | 1010.5 hPa | 0 mm | 0.89 m/s, 225° | 376 W/m² | - |
| 1778010796 | 13.33° C | 39% | 1010.6 hPa | 0 mm | 1.34 m/s, 155° | 264 W/m² | - |
| 1778010496 | 13.33° C | 38% | 1010.6 hPa | 0 mm | 1.34 m/s, 334° | 223 W/m² | - |
| 1778010193 | 12.78° C | 38% | 1010.7 hPa | 0 mm | 2.24 m/s, 300° | 390 W/m² | - |
| 1778009892 | 12.78° C | 38% | 1010.9 hPa | 0 mm | 2.24 m/s, 301° | 283 W/m² | - |
| 1778009609 | 12.78° C | 39% | 1011 hPa | 0 mm | 2.68 m/s, 349° | 264 W/m² | - |
| 1778009309 | 12.78° C | 41% | 1010.8 hPa | 0 mm | 2.24 m/s, 39° | 288 W/m² | - |
| 1778009007 | 12.78° C | 39% | 1010.9 hPa | 0 mm | 1.34 m/s, 296° | 241 W/m² | - |
| 1778008705 | 12.78° C | 39% | 1010.9 hPa | 0 mm | 1.34 m/s, 242° | 213 W/m² | - |
| 1778008401 | 12.78° C | 41% | 1011.1 hPa | 0 mm | 0.89 m/s, 337° | 197 W/m² | - |
| 1778008092 | 12.22° C | 41% | 1011.2 hPa | 0 mm | 1.34 m/s, 303° | 188 W/m² | - |
| 1778007811 | 12.22° C | 41% | 1011.3 hPa | 0 mm | 0.89 m/s, 348° | 204 W/m² | - |
| 1778007503 | 12.22° C | 40% | 1011.3 hPa | 0 mm | 1.79 m/s, 327° | 193 W/m² | - |
| 1778007201 | 12.22° C | 38% | 1011.3 hPa | 0 mm | 1.34 m/s, 300° | 160 W/m² | - |
| 1778006899 | 12.22° C | 39% | 1011.4 hPa | 0 mm | 0.89 m/s, 235° | 162 W/m² | - |
* Rain latest hour (hover to see other rain measurements)
** Current wind speed in m/s (hover to see current wind gust speed)